Regional Weather Roundup
Issued by NWS Bismarck, ND

Home | Current Version | Previous Version | Text Only | Print | Product List | Glossary On
Versions: 1 2 3 4 5 6 7 8 9 10 11 12 13 14 15 16 17 18 19 20 21 22 23 24 25 26 27 28 29 30 31 32 33 34 35 36 37 38 39 40 41 42 43 44 45 46 47 48 49 50
763
ASUS43 KBIS 192102
RWRBIS

NWR BROADCAST TEXT
NATIONAL WEATHER SERVICE BISMARCK ND
300 PM CST SUN NOV 19 2017

NOTE: "FAIR" INDICATES FEW OR NO CLOUDS BELOW 12,000 FEET WITH NO
SIGNIFICANT WEATHER AND/OR OBSTRUCTIONS TO VISIBILITY.


CITY           SKY/WX    TMP DP  RH WIND       PRES   REMARKS
WILLISTON      CLOUDY    44  21  40 SW5       29.73F
MINOT          CLOUDY    41  26  55 CALM      29.75F
MINOT AFB      NOT AVBL
BISMARCK       CLOUDY    49  27  42 CALM      29.79F
DICKINSON      CLOUDY    45  19  35 SW7       29.75F
GARRISON         N/A     39  25  57 W7        29.77F
HETTINGER ARPT CLOUDY    45  19  35 W7        29.80F
JAMESTOWN      CLOUDY    43  26  51 W12       29.78S
CARRINGTON     FAIR      37  28  70 W7        29.80S
LINTON           N/A     46  21  36 W7G14     29.83R
OAKES            N/A     46  23  39 W8        29.81R
TIOGA          FAIR      39  21  48 SW12      29.73F
$$

CITY           SKY/WX    TMP DP  RH WIND       PRES   REMARKS
GRAND FORKS    MOSUNNY   34  26  72 W5        29.80S
GRAND FORKS AF SUNNY     35  25  65 W3        29.79F
DEVILS LAKE    CLOUDY    34  26  72 W9        29.77F
FARGO          SUNNY     46  26  45 SW8       29.79F
CANDO          FAIR      36  25  64 W8        29.77F
CAVALIER       FAIR      25  18  74 SE3       29.80S
GWINNER          N/A     46  23  39 SW13      29.80S
ROLLA          FAIR      32  25  74 SW7       29.74F
WALHALLA       FAIR      28  19  69 NE3       29.79F
$$

CITY           SKY/WX    TMP DP  RH WIND       PRES   REMARKS
ABERDEEN       CLOUDY    50  23  34 W10       29.83F
MOBRIDGE       CLOUDY    49  24  37 N3        29.80F
BUFFALO          N/A     49  21  33 SW10      29.73F
RAPID CITY     CLOUDY    54  17  23 SE10      29.83F
GLASGOW        CLOUDY    47  24  40 S8        29.67F
SIDNEY         CLOUDY    41  23  48 S12       29.74F
WOLF POINT     CLOUDY    44  24  45 SE3       29.70F
GLENDIVE       CLOUDY    42  21  43 SW10      29.74F
MILES CITY     CLOUDY    46  26  45 S5        29.75F
BAKER          CLOUDY    47  20  34 W10       29.78F
$$

CITY           SKY/WX    TMP DP  RH WIND       PRES   REMARKS
BILLINGS       CLOUDY    47  15  27 SW18      29.81F
GREAT FALLS    CLOUDY    47   9  21 SW29G43   29.73F
$$





USA.gov is the U.S. government's official web portal to all federal, state and local government web resources and services.